Wind_Speed
40 40 39 40 41 42 44 44 44 42 41 39 39 39 39 39 38 37 38 37 38 38 39 39 39 40 40 41 41 42 42 43 43 44 45 45 46 46 47 48 49 49 50 50
40 41 41 41 41 41 42 43 43 42 41 39 39 38 39 39 39 38 38 38 38 39 39 39 39 39 39 40 41 42 42 43 44 44 45 45 46 46 47 48 49 49 50 50
39 40 41 42 40 40 40 40 41 41 39 38 38 38 39 40 40 40 40 39 40 40 40 40 40 40 40 40 41 42 42 43 43 44 45 45 46 46 47 48 48 49 50 50
37 38 40 39 39 39 38 38 38 38 37 37 37 38 39 39 40 41 41 41 41 40 40 39 39 39 39 40 40 40 41 42 43 44 45 46 47 47 48 48 48 49 49 50
35 36 37 37 36 37 37 35 35 36 36 36 36 37 37 38 39 39 40 40 39 39 39 38 39 39 39 39 40 41 41 43 43 44 45 45 46 47 47 48 48 49 49 49
35 35 36 35 35 35 36 35 34 35 35 35 35 35 35 37 38 38 38 39 39 38 39 39 39 39 39 40 40 41 41 42 43 44 44 45 45 46 46 47 47 48 48 47
33 34 34 34 34 34 34 35 35 35 35 34 35 35 34 35 36 37 37 37 37 37 38 38 39 40 40 40 40 41 41 42 42 43 43 44 44 45 45 45 45 45 45 46
31 32 32 32 32 33 33 34 35 35 35 35 35 35 35 35 35 35 36 36 36 36 37 38 38 39 40 40 40 41 41 41 41 42 42 43 43 43 43 43 43 43 44 44
31 31 31 31 32 33 33 34 34 34 35 35 35 35 35 35 35 34 35 35 36 36 37 38 39 39 40 40 40 40 40 40 40 40 41 41 41 41 41 41 41 42 42 43
28 29 31 31 31 32 33 33 33 33 34 34 34 35 36 36 36 36 36 36 37 37 38 38 38 38 38 38 38 38 38 38 39 39 39 39 39 39 39 40 41 41 41 41
26 27 28 29 30 31 31 31 31 32 33 33 33 33 34 35 35 36 36 36 36 36 36 36 36 36 36 37 37 37 37 37 37 37 37 37 38 38 39 39 40 39 39 40
25 25 26 26 28 28 29 29 29 30 30 30 31 31 32 32 33 33 34 34 35 35 34 35 35 35 36 36 35 35 35 35 35 36 36 37 37 37 38 38 38 38 39 39
24 25 25 25 26 26 27 27 27 28 29 30 30 31 32 32 32 33 33 33 33 34 34 34 34 35 35 34 34 34 34 34 34 35 35 36 36 37 37 37 38 38 39 39
24 24 25 25 25 26 27 27 27 28 29 30 31 31 31 31 32 32 33 33 33 33 33 33 34 34 34 33 33 33 33 33 34 34 34 35 35 36 37 37 37 38 38 37
22 22 23 23 24 25 26 26 27 28 28 29 29 29 29 29 30 31 32 32 32 32 32 33 33 33 32 32 32 32 33 33 34 34 34 35 35 35 36 36 36 37 36 36
21 22 22 22 23 23 23 24 25 25 26 27 27 28 28 29 29 30 31 31 31 31 31 32 31 32 31 31 32 32 33 33 34 34 35 35 35 36 36 36 36 35 35 35
20 21 21 21 22 22 23 23 24 24 25 25 26 26 27 28 29 29 28 29 30 30 30 30 30 30 31 31 32 32 33 33 33 34 34 34 35 35 35 35 34 34 34 34
19 20 20 20 21 22 22 23 23 24 24 24 24 24 25 26 26 26 27 28 29 29 29 29 29 30 30 31 31 32 32 32 32 33 33 34 34 34 34 33 33 32 33 33
18 18 18 19 20 20 22 22 23 23 23 24 24 24 24 24 24 25 26 27 28 28 29 29 29 29 29 30 30 30 30 31 31 32 33 33 33 33 32 31 31 30 31 31
18 17 18 18 19 20 20 21 22 23 23 23 23 23 23 24 24 25 25 26 26 27 27 28 28 28 28 28 29 29 30 30 30 31 31 31 31 30 30 30 29 29 29 29
17 17 17 18 19 19 20 20 21 21 21 22 22 22 23 23 23 24 24 25 25 25 26 26 26 26 27 27 27 27 28 28 29 29 29 29 29 29 28 28 28 27 27 26
17 18 18 18 18 19 19 20 20 19 20 20 21 21 22 22 22 23 23 24 24 25 25 25 25 25 25 25 25 26 26 27 27 27 28 28 28 27 27 26 26 26 25 24
17 18 18 19 19 19 19 19 19 19 19 19 19 19 19 20 20 21 21 22 23 23 24 24 24 25 25 25 25 25 25 25 26 26 26 26 26 26 25 25 25 24 23 22
17 17 18 18 19 19 18 18 19 19 19 18 18 19 19 20 20 21 21 22 22 23 23 23 24 24 24 24 24 24 25 25 25 25 24 24 24 24 23 23 22 22 21 20
16 16 17 18 18 18 18 18 18 19 19 19 19 20 20 20 21 21 22 22 22 22 22 22 22 23 23 23 23 23 23 23 22 22 22 22 21 21 21 20 20 19 18 18
16 16 16 16 16 17 17 17 18 18 19 19 19 20 20 20 21 21 21 22 22 21 21 21 21 21 22 22 21 21 20 19 19 19 19 19 19 19 18 18 17 17 16 16
15 15 15 15 15 16 16 17 18 18 19 19 20 20 20 20 20 21 21 21 21 20 20 20 20 20 20 19 19 18 17 17 17 17 17 17 17 16 16 16 16 16 15 15
Wind_Direction
237 238 238 239 240 240 242 244 247 247 249 250 253 253 253 252 253 253 254 256 258 259 261 262 263 265 266 267 267 268 268 269 271 272 274 274 275 275 277 279 281 282 283 285
238 238 240 240 240 242 243 245 248 248 249 250 252 252 252 253 254 253 253 255 258 260 260 262 262 263 264 266 266 267 269 270 271 273 274 274 275 276 278 280 282 282 283 285
239 239 241 240 241 243 244 246 248 249 249 250 251 251 252 253 254 254 255 257 259 260 261 262 263 264 265 266 267 268 269 271 272 273 274 275 276 278 279 281 282 284 285 286
241 241 242 242 241 243 244 245 247 248 248 250 251 252 252 254 255 255 256 258 259 260 261 261 263 264 265 267 267 268 269 271 273 274 275 276 277 278 280 281 283 284 285 286
241 243 243 242 243 244 245 244 244 245 246 248 250 251 253 255 256 256 256 256 257 259 261 262 263 264 266 267 267 268 269 271 273 274 275 276 277 278 280 282 283 284 286 287
240 242 244 244 245 246 245 244 243 244 245 248 250 252 253 255 256 257 256 256 256 259 261 262 263 265 267 267 267 268 270 272 272 274 276 277 278 280 281 282 283 284 286 287
241 243 245 245 246 247 248 246 246 247 248 250 252 252 253 255 256 256 255 255 256 258 260 262 264 266 267 267 267 269 271 273 273 275 277 278 279 281 282 283 284 285 286 287
241 243 244 245 246 247 248 249 249 249 250 251 253 253 254 255 255 255 255 255 256 258 260 262 264 266 268 268 269 270 272 273 275 276 277 279 280 282 282 283 284 285 286 287
242 243 245 247 248 247 248 250 251 252 252 253 253 253 254 254 254 254 255 256 258 260 262 264 266 267 268 268 270 271 272 273 275 277 278 279 280 282 283 284 285 286 287 289
245 245 246 248 249 250 251 251 252 252 252 253 254 255 255 255 255 255 256 259 261 262 264 265 266 267 268 269 271 271 272 273 275 276 278 279 280 282 283 284 286 287 289 290
249 248 249 249 249 249 250 251 251 252 252 253 253 254 255 256 257 258 258 259 261 262 263 264 265 266 268 270 271 271 272 273 274 276 278 280 281 282 283 286 287 289 290 292
250 250 250 248 249 248 248 247 248 248 249 250 251 252 253 255 256 257 258 259 260 262 262 263 265 266 268 270 270 271 272 273 275 277 279 281 282 283 285 287 288 290 292 293
248 248 249 249 248 247 247 246 247 249 249 250 251 252 253 254 256 256 257 259 261 262 263 264 265 267 268 268 269 270 272 273 275 277 280 282 283 285 286 288 290 292 293 294
246 247 248 249 249 248 248 248 249 251 253 254 254 253 254 255 256 258 258 259 261 262 263 264 265 267 267 268 269 271 272 274 276 278 281 283 284 286 287 289 291 292 294 294
247 247 249 250 251 252 251 251 253 254 256 256 255 255 255 256 258 259 260 260 261 262 262 264 265 266 267 268 269 271 273 275 277 279 282 284 285 287 289 291 292 293 294 295
248 249 249 250 251 252 254 256 257 257 257 256 256 256 256 257 259 260 261 260 260 261 262 263 264 266 267 268 270 272 273 275 277 280 282 284 286 288 290 291 292 293 293 295
249 250 251 251 251 252 254 257 259 258 258 256 256 258 259 259 260 261 261 261 260 261 262 264 265 266 267 268 270 271 273 275 278 281 283 285 287 290 291 292 292 293 294 295
251 252 253 253 254 256 257 259 259 259 258 258 258 259 261 262 261 262 263 264 264 263 263 265 266 267 268 270 271 273 275 277 279 282 284 286 289 291 292 292 292 294 295 296
255 256 256 257 257 259 260 260 260 260 261 261 261 261 262 262 261 262 264 265 266 266 266 267 268 269 270 271 272 274 276 279 281 284 286 288 290 292 292 292 293 295 297 299
258 260 262 261 260 260 261 262 262 262 263 264 264 264 263 262 262 263 263 264 265 266 267 269 270 271 272 273 275 277 278 280 282 284 286 288 290 292 292 293 294 295 297 299
259 261 263 263 263 263 263 264 265 265 264 264 265 266 265 264 264 265 266 267 267 268 269 271 272 273 274 276 278 279 280 282 283 284 285 288 290 291 292 293 295 297 297 297
263 263 263 264 265 265 265 265 265 265 266 267 267 267 267 266 266 267 268 270 271 272 273 273 273 274 276 278 279 280 282 283 284 284 286 288 289 289 291 293 295 296 297 296
264 263 263 264 265 266 265 264 264 265 267 268 267 267 268 268 268 269 270 272 274 274 274 273 273 275 277 278 279 281 283 284 285 285 287 287 288 289 290 292 293 294 295 295
263 265 266 266 266 267 267 265 265 265 265 266 267 269 270 270 270 272 273 274 275 276 275 274 274 275 276 278 279 280 281 282 284 285 286 287 288 289 289 291 292 293 294 295
263 265 268 268 267 266 266 267 266 265 265 267 269 270 272 272 273 273 274 275 276 275 274 273 274 275 276 278 279 280 281 282 283 284 286 287 288 288 288 289 291 293 294 295
266 267 269 270 268 266 266 266 266 266 267 268 270 271 272 272 273 274 275 275 275 273 272 273 274 276 277 279 279 281 281 282 283 285 286 288 288 288 289 290 291 293 294 294
268 269 270 270 271 269 268 268 269 270 270 270 272 273 273 273 273 274 274 274 274 274 273 273 274 275 277 279 279 279 280 282 284 286 288 289 289 290 291 293 293 292 292 293
Height
5567 5571 5574 5578 5582 5585 5588 5592 5596 5601 5605 5609 5609 5611 5613 5615 5617 5619 5621 5623 5624 5626 5626 5627 5627 5627 5628 5627 5627 5627 5626 5626 5625 5624 5623 5621 5620 5618 5616 5614 5612 5609 5606 5604
5557 5561 5564 5568 5572 5575 5579 5582 5585 5589 5594 5598 5599 5600 5603 5605 5606 5609 5610 5612 5614 5615 5616 5616 5617 5617 5617 5616 5616 5616 5615 5615 5614 5613 5611 5610 5608 5606 5604 5602 5599 5597 5594 5591
5548 5552 5554 5559 5564 5567 5570 5573 5576 5579 5585 5587 5588 5590 5592 5594 5596 5598 5600 5601 5603 5604 5605 5605 5606 5606 5606 5605 5605 5604 5604 5603 5602 5601 5599 5598 5596 5594 5592 5590 5587 5584 5581 5578
5539 5543 5546 5552 5555 5558 5560 5563 5566 5569 5573 5576 5578 5580 5581 5583 5585 5587 5589 5590 5592 5593 5594 5594 5595 5595 5595 5594 5594 5593 5592 5592 5590 5589 5588 5586 5584 5582 5580 5578 5575 5572 5569 5565
5531 5533 5536 5542 5546 5548 5551 5554 5557 5560 5563 5565 5568 5570 5572 5573 5574 5576 5578 5579 5580 5582 5583 5583 5584 5584 5584 5584 5583 5582 5581 5580 5579 5577 5576 5574 5572 5570 5568 5565 5562 5559 5556 5552
5522 5525 5529 5535 5537 5539 5542 5545 5548 5550 5553 5556 5558 5560 5563 5562 5564 5565 5567 5568 5570 5571 5572 5573 5573 5573 5573 5573 5572 5571 5570 5569 5568 5566 5564 5563 5560 5558 5555 5553 5550 5547 5543 5540
5514 5517 5521 5525 5527 5530 5535 5537 5539 5540 5543 5546 5548 5550 5552 5552 5554 5555 5557 5558 5560 5561 5562 5562 5562 5562 5562 5562 5561 5560 5559 5558 5557 5555 5553 5551 5549 5546 5543 5541 5538 5535 5532 5528
5506 5509 5515 5516 5518 5522 5523 5525 5528 5531 5533 5535 5538 5539 5541 5543 5544 5545 5547 5548 5549 5550 5551 5551 5552 5552 5551 5551 5550 5550 5549 5547 5546 5544 5542 5539 5537 5535 5532 5529 5526 5523 5520 5517
5499 5504 5505 5507 5509 5511 5513 5516 5518 5521 5524 5526 5528 5529 5531 5533 5534 5536 5537 5538 5539 5540 5540 5541 5541 5541 5540 5540 5539 5539 5538 5536 5534 5533 5531 5528 5526 5523 5521 5518 5515 5512 5509 5505
5491 5494 5496 5498 5500 5502 5504 5506 5509 5511 5514 5516 5518 5520 5521 5523 5524 5526 5527 5528 5529 5530 5530 5530 5530 5530 5530 5529 5529 5528 5527 5525 5524 5522 5520 5517 5515 5512 5510 5507 5504 5501 5497 5494
5483 5485 5487 5490 5491 5493 5495 5497 5500 5502 5504 5506 5508 5510 5511 5513 5514 5515 5517 5518 5519 5519 5520 5520 5520 5519 5519 5519 5518 5517 5516 5514 5513 5511 5509 5507 5504 5502 5499 5496 5493 5490 5486 5483
5475 5477 5479 5481 5483 5485 5487 5489 5491 5493 5495 5496 5498 5500 5501 5503 5504 5505 5506 5507 5508 5509 5509 5509 5509 5509 5509 5508 5507 5507 5505 5504 5502 5501 5499 5496 5494 5491 5488 5485 5482 5479 5475 5472
5467 5469 5471 5473 5475 5477 5479 5481 5483 5485 5486 5488 5489 5490 5492 5493 5494 5495 5496 5497 5498 5498 5499 5499 5499 5499 5498 5498 5497 5496 5495 5494 5492 5491 5488 5486 5483 5481 5478 5475 5472 5468 5465 5461
5460 5462 5464 5466 5468 5469 5471 5472 5474 5476 5477 5478 5480 5481 5482 5483 5484 5485 5486 5487 5488 5488 5488 5489 5489 5489 5488 5488 5487 5487 5486 5484 5483 5481 5478 5476 5473 5470 5467 5464 5461 5458 5454 5450
5453 5455 5457 5458 5460 5462 5463 5464 5466 5467 5468 5469 5470 5471 5472 5473 5474 5475 5476 5477 5477 5478 5478 5479 5479 5479 5478 5478 5478 5477 5476 5474 5472 5470 5468 5466 5463 5460 5457 5454 5451 5447 5444 5440
5447 5448 5450 5452 5453 5454 5456 5457 5458 5459 5460 5461 5462 5463 5463 5464 5465 5466 5466 5467 5467 5468 5468 5468 5469 5469 5468 5468 5468 5467 5465 5464 5462 5460 5458 5455 5453 5450 5447 5444 5441 5437 5434 5431
5441 5442 5444 5445 5446 5447 5448 5450 5450 5451 5452 5453 5453 5454 5455 5455 5456 5457 5457 5457 5458 5458 5458 5459 5459 5459 5458 5458 5457 5456 5455 5454 5452 5450 5448 5445 5443 5440 5437 5434 5431 5427 5424 5421
5434 5435 5436 5438 5439 5440 5441 5442 5443 5443 5444 5445 5446 5446 5446 5447 5447 5448 5448 5448 5448 5449 5449 5449 5449 5449 5449 5448 5448 5446 5445 5444 5442 5440 5438 5436 5433 5430 5427 5424 5421 5418 5415 5412
5428 5429 5430 5431 5432 5433 5434 5435 5435 5436 5437 5437 5438 5438 5439 5439 5439 5440 5440 5440 5440 5440 5440 5440 5440 5440 5439 5439 5438 5437 5436 5434 5433 5431 5429 5426 5424 5421 5418 5415 5412 5409 5406 5403
5422 5423 5424 5425 5425 5426 5427 5428 5428 5429 5429 5430 5430 5431 5431 5431 5431 5432 5432 5432 5432 5432 5432 5431 5431 5431 5430 5429 5429 5428 5426 5425 5423 5421 5419 5417 5414 5412 5409 5407 5404 5401 5398 5395
5416 5417 5418 5419 5419 5420 5421 5421 5421 5422 5422 5422 5423 5423 5423 5423 5424 5424 5423 5424 5424 5423 5423 5423 5422 5422 5421 5421 5420 5418 5417 5416 5414 5412 5410 5408 5406 5403 5401 5398 5396 5393 5390 5388
5411 5411 5412 5413 5413 5413 5414 5414 5415 5415 5415 5415 5416 5416 5416 5416 5416 5416 5416 5416 5416 5415 5415 5414 5414 5413 5413 5412 5411 5410 5409 5407 5406 5404 5402 5400 5397 5395 5393 5390 5388 5385 5383 5380
5405 5405 5406 5406 5407 5407 5407 5408 5408 5408 5409 5409 5409 5409 5409 5408 5408 5409 5409 5408 5408 5407 5407 5406 5406 5405 5405 5404 5403 5402 5400 5399 5397 5395 5393 5391 5389 5387 5385 5383 5380 5378 5376 5373
5399 5399 5400 5400 5400 5400 5401 5401 5401 5402 5402 5402 5402 5402 5402 5402 5402 5402 5401 5401 5400 5400 5399 5398 5398 5397 5397 5396 5395 5394 5392 5391 5389 5387 5385 5383 5381 5379 5377 5375 5373 5371 5369 5367
5393 5393 5393 5394 5394 5394 5394 5394 5395 5395 5395 5396 5396 5395 5395 5395 5395 5394 5394 5393 5393 5392 5391 5391 5390 5390 5389 5388 5387 5386 5384 5383 5381 5379 5378 5376 5374 5372 5370 5368 5366 5365 5363 5361
5387 5387 5387 5387 5387 5388 5388 5388 5388 5388 5389 5389 5389 5388 5388 5388 5387 5387 5386 5386 5385 5384 5384 5383 5383 5382 5381 5380 5379 5378 5377 5375 5374 5372 5371 5369 5367 5365 5363 5362 5360 5359 5357 5355
5382 5382 5382 5382 5382 5382 5382 5382 5382 5382 5382 5382 5381 5381 5381 5380 5380 5379 5379 5378 5378 5377 5376 5376 5376 5375 5374 5373 5372 5371 5370 5369 5368 5366 5364 5363 5361 5359 5357 5356 5354 5353 5351 5350